Hourly Data Report for August 06, 2017

All times are specified in Local Standard Time (LST). Add 1 hour to adjust for Daylight Saving Time where and when it is observed.

ST. STEPHEN
NEW BRUNSWICK

45°12'36.600" N
67°15'10.300" W
26.10 m
8104935
71607
WSS

Download Data

Hourly Data (August 2017)
Hourly Data Report for August 6, 2017
Temp Definition
°C
Dew Point Temp Definition
°C
Rel Hum Definition
%
Wind Dir Definition
10's deg

Wind Spd Definition
km/h
Visibility Definition
km
Stn Press Definition
kPa
Hmdx Definition


Wind Chill Definition


Weather Definition


TIME
00:00 18.1 17.3 95 10 7   100.72     LegendNANA
01:00 18.7 18.0 96 18 6   100.72     LegendNANA
02:00 18.5 17.9 96 9 4   100.61     LegendNANA
03:00 18.6 17.9 96 21 1   100.58     LegendNANA
04:00 18.4 17.7 96 18 4   100.55     LegendNANA
05:00 18.1 17.4 96   0   100.51     LegendNANA
06:00 18.2 17.5 96 14 2   100.53     LegendNANA
07:00 18.5 17.8 96   0   100.51     LegendNANA
08:00 18.9 18.0 94 25 6   100.52     LegendNANA
09:00 19.6 18.1 91 25 7   100.55     LegendNANA
10:00 21.3 16.5 74 26 12   100.55 26   LegendNANA
11:00 22.8 15.3 63 28 12   100.56 27   LegendNANA
12:00 23.0 14.5 59 26 14   100.55 27   LegendNANA
13:00 24.1 13.7 52 27 11   100.54 27   LegendNANA
14:00 24.0 11.7 46 25 18   100.58 26   LegendNANA
15:00 23.1 11.8 49 29 17   100.61 25   LegendNANA
16:00 21.9 10.2 47 26 18   100.69     LegendNANA
17:00 21.2 9.7 48 28 21   100.73     LegendNANA
18:00 20.7 8.9 47 28 12   100.77     LegendNANA
19:00 19.1 9.2 53 28 11   100.87     LegendNANA
20:00 17.7 9.7 60 27 9   100.95     LegendNANA
21:00 16.0 10.1 68 25 7   101.06     LegendNANA
22:00 15.9 9.8 67 27 6   101.11     LegendNANA
23:00 12.1 9.7 86   0   101.12     LegendNANA

Notes on Data Quality.

Legend

  • E = Estimated
  • M = Missing
  • NA = Not Available
  • ‡ = Partner data that is not subject to review by the National Climate Archives
Date modified: